Location: Recife
(8.0585°S, 34.8848°W)
Time: 12:14:27
(UTC-03:00)

Vanguard 1 Rocket - Pass Details

Date: 21 April 2026
Orbit: 655 x 4212 km, 34.3° (Epoch: 12 May)

Event Time Altitude Azimuth Distance (km) Brightness Sun altitude
Rises 01:39:27 0° 328° (NNW) 7,597 12.0 -55.1°
Reaches altitude 10° 01:48:40 10° 346° (NNW) 5,770 11.4 -52.8°
Maximum altitude 01:56:55 15° 17° (NNE) 4,411 11.0 -50.8°
Drops below altitude 10° 02:03:00 10° 50° (NE) 4,107 11.1 -49.3°
Sets 02:07:30 0° 72° (ENE) 4,510 11.6 -48.2°
